User: anonymous   Login
Location: Unspecified
(0.0000°N, 0.0000°E)
Time: 23:10:43
(UTC+02:00)
Language:

NOSS 2-2 (E) - Orbit

View from above orbital plane
View from above orbital plane
View from above satellite
View from above satellite

Ground track
Ground track

The orbit data is extracted from the following two-line orbital elements,

1 21809U 91076E   16122.95610971 0.00000160  00000-0  61216-4 0    03
2 21809  63.3600  80.1431 0713000  17.8546 342.1454 13.41258276    01
Epoch (UTC): 01 May 2016 22:56:47
Eccentricity: 0.0713000
inclination: 63.3600°
perigee height: 571 km
apogee height: 1638 km
right ascension of ascending node: 80.1431°
argument of perigee: 17.8546°
revolutions per day: 13.41258276
mean anomaly at epoch: 342.1454°
orbit number at epoch: 0

The dashed part of the orbit path shows where the satellite is in the earth's shadow,  

DLR